TIME,DELAY(SENSOR),PRES,T(CTD),SAL,OXYGEN,RAWTEMP,T(OPTODE),TCPHASE,FLUOR,BETA(BETA700),BETA(BETA412),BETA(BETA440),CDOM,C(CSC),ED(ED411.90),ED(ED443.80),ED(ED489.40),ED(ED554.70),LU(LU412.20),LU(LU443.80),LU(LU489.40),LU(LU555.00),COMP,TILTX,TILTX(TILTY),CHECK
1344352145,5801,496.1700134277344000,17.2551994323730470,36.4210014343261700,229.1204071044922000,194.2774963378906200,17.2557601928710940,32.1273689270019500,50,107,100,83,67,15381,2147482605,2147772233,2147560054,2147794176,2147316342,2147474971,2147711561,2148251181,1301,7,13,35175
1344352262,5804,485.7399902343750000,17.3502006530761720,36.4387016296386700,231.0251007080078000,191.2919006347656200,17.3465805053710940,31.9917507171630860,50,107,99,83,67,15375,2147485961,2147765330,2147559625,2147795492,2147313801,2147475803,2147711552,2148247698,1961,7,13,14624
1344352389,5804,474.4299926757812500,17.4381008148193360,36.4584007263183600,233.2653961181640600,188.4776000976562500,17.4322109222412100,31.8435802459716800,50,108,98,83,66,15381,2147485376,2147767579,2147557010,2147797101,2147312118,2147479597,2147713462,2148242249,2447,7,13,51811
1344352518,5803,462.8999938964844000,17.5223007202148440,36.4754981994628900,236.6826934814453000,185.5391998291015600,17.5216197967529300,31.6381893157959000,50,105,100,85,65,15378,2147482075,2147767204,2147560228,2147793481,2147312713,2147478710,2147712173,2148244105,2288,7,13,11251
1344352633,5804,452.4800109863281000,17.5823993682861330,36.4861984252929700,236.9037933349609400,183.7035064697265600,17.5774803161621100,31.6028804779052730,50,106,99,83,67,15380,2147484342,2147767396,2147559542,2147793453,2147315245,2147480109,2147707501,2148243885,1866,7,13,60270
1344352760,5803,440.8599853515625000,17.6340007781982420,36.4922981262207000,235.1372985839843800,181.9611968994140600,17.6305007934570300,31.6639804840087900,50,108,98,84,66,15377,2147483556,2147769179,2147559268,2147793609,2147315318,2147475218,2147708918,2148242998,2180,7,13,61262
1344352877,5801,430.1900024414062500,17.6877994537353500,36.5021018981933600,234.9217987060547000,180.0942993164062500,17.6873207092285160,31.6490192413330080,50,108,99,83,66,15380,2147487926,2147764854,2147557723,2147797211,2147305664,2147479094,2147710098,2148244160,2155,7,13,8381
1344353004,5802,418.7699890136719000,17.7637996673584000,36.5168991088867200,236.3092041015625000,177.4981994628906200,17.7663497924804700,31.5474891662597660,50,108,99,83,66,15378,2147487680,2147767725,2147557558,2147794550,2147312649,2147479990,2147708059,2148247076,2526,7,13,43191
1344353119,5804,408.6000061035156000,17.8328990936279300,36.5289993286132800,237.5758056640625000,175.2861938476562500,17.8336791992187500,31.4569606781005860,50,108,99,85,66,15379,2147487067,2147765357,2147559122,2147794130,2147311552,2147478866,2147708644,2148240868,3131,7,13,57020
1344353248,5801,397.5199890136719000,17.8915004730224600,36.5393981933593750,238.2855987548828000,173.5030059814453000,17.8879699707031250,31.3991508483886720,50,106,99,84,67,15376,2147482441,2147766317,2147556525,2147794944,2147301586,2147481270,2147708123,2148241526,3049,7,13,26664
1344353387,5804,386.0700073242187500,17.9349002838134770,36.5461006164550800,238.6781005859375000,172.0753936767578000,17.9314403533935550,31.3615398406982420,50,108,99,84,66,15378,2147485760,2147762614,2147556507,2147794038,2147310866,2147481261,2147708233,2148241298,2962,7,13,46513
1344353516,5804,375.8599853515625000,17.9708003997802730,36.5513000488281250,238.2566986083984400,170.9194030761718800,17.9666309356689450,31.3658790588378900,50,106,98,84,66,15376,2147483126,2147767606,2147556416,2147790930,2147302089,2147479725,2147708955,2148243766,3066,7,13,57246
1344353667,5804,364.2600097656250000,18.0188007354736330,36.5568008422851560,238.0079956054687500,169.2651062011718800,18.0170097351074220,31.3553791046142580,50,109,100,85,66,15376,2147483437,2147768338,2147558144,2147792329,2147299885,2147477010,2147704630,2148239488,152,7,13,36352
1344353815,5805,352.4500122070312500,18.0680999755859380,36.5621986389160160,237.4409027099609400,167.5950012207031200,18.0678691864013670,31.3600692749023440,50,108,98,82,66,15378,2147487826,2147767597,2147554322,2147791323,2147311305,2147481910,2147705746,2148240923,261,8,13,34146
1344353929,5805,341.1700134277344000,18.1383991241455080,36.5689010620117200,236.8179016113281200,165.1589965820312500,18.1420593261718750,31.3570899963378900,50,111,98,83,67,15375,2147489362,2147771190,2147564470,2147792850,2147306102,2147483867,2147712822,2148239616,339,8,12,64550
1344354044,5804,329.1000061035156000,18.1968002319335940,36.5772018432617200,236.3043975830078000,163.2904052734375000,18.1989803314209000,31.3565101623535160,50,108,99,83,67,15374,2147484745,2147766701,2147570678,2147793334,2147300224,2147481636,2147717266,2148240685,495,8,12,18941
1344354149,5801,318.0100097656250000,18.2530994415283200,36.5850982666015600,235.9606018066406200,161.6036071777343800,18.2503604888916000,31.3502998352050780,49,108,100,84,67,15367,2147487524,2147768685,2147576905,2147793106,2147311369,2147483520,2147718061,2148243209,592,7,12,3165
1344354252,5805,306.8699951171875000,18.2978992462158200,36.5880012512207000,234.8928070068359400,160.1528015136718800,18.2945709228515620,31.3818702697753900,50,110,99,85,67,15365,2147485376,2147772443,2147581019,2147790290,2147302546,2147486582,2147720896,2148239826,181,7,12,43678
1344354355,5805,295.4100036621094000,18.3407001495361330,36.5922012329101560,234.1340026855468800,158.5142974853515600,18.3444900512695300,31.3965702056884770,50,111,100,85,67,15366,2147486930,2147776246,2147589522,2147790326,2147307766,2147484699,2147727314,2148241206,122,7,12,51262
1344354473,5801,283.3999938964844000,18.4136009216308600,36.6006011962890600,233.2830047607422000,156.2035980224609400,18.4148998260498050,31.4066200256347660,49,110,100,85,67,15369,2147487634,2147780370,2147604946,2147789622,2147301878,2147493202,2147734893,2148242724,335,7,12,21407
1344354600,5805,272.2399902343750000,18.5363998413085940,36.6068992614746100,231.2035980224609400,152.2976989746093800,18.5339508056640620,31.4552593231201170,50,110,98,84,66,15365,2147486061,2147784109,2147622052,2147788205,2147305069,2147494043,2147745417,2148240923,29,7,12,7878
1344354729,5803,261.1700134277344000,18.6077995300292970,36.6128005981445300,229.3406066894531200,149.7312011718750000,18.6121807098388670,31.5123691558837900,50,110,99,85,67,15364,2147490029,2147794112,2147653760,2147794496,2147309997,2147499099,2147761691,2148245641,684,7,13,37206
1344354856,5804,250.6900024414062500,18.7558002471923830,36.6175994873046900,227.8428039550781200,145.1224975585937500,18.7527103424072270,31.5246391296386720,51,111,100,84,67,15363,2147490678,2147803090,2147677568,2147791186,2147304841,2147508507,2147778569,2148243547,919,7,12,13681
1344354995,5803,239.8500061035156200,18.9171009063720700,36.6144981384277340,228.8789062500000000,139.9477996826172000,18.9105491638183600,31.4038791656494140,51,109,100,83,67,15360,2147492836,2147829760,2147736201,2147792722,2147308150,2147520658,2147809051,2148245193,386,7,13,19250
1344355148,5802,228.3200073242187500,19.0244007110595700,36.6092987060546900,232.6302032470703000,136.4691925048828000,19.0167007446289060,31.1747798919677730,51,109,100,84,65,15365,2147497234,2147793691,2147635721,2147788370,2147298249,2147504832,2147750656,2148239972,572,7,12,45463
1344355299,5804,217.9199981689453000,19.0722999572753900,36.5904998779296900,239.4868011474609400,134.9611053466797000,19.0627193450927730,30.8295097351074220,50,109,100,85,66,15367,2147496713,2147809691,2147669750,2147788306,2147310820,2147508982,2147773376,2148243227,507,7,12,55469
1344355442,5804,206.7899932861328000,19.1371994018554700,36.5775985717773440,246.0211944580078000,132.4573059082031200,19.1391391754150400,30.4972496032714840,50,112,99,85,64,15362,2147494692,2147812004,2147670070,2147790902,2147310966,2147510930,2147773238,2148244891,573,7,12,32907
1344355557,5805,196.9400024414062500,19.2784004211425780,36.5984001159668000,247.7563018798828000,128.1307983398437500,19.2712402343750000,30.3629093170166000,53,113,100,84,64,15362,2147522980,2148022482,2148212132,2147789796,2147315721,2147650788,2148083565,2148259849,777,7,12,29123
1344355612,5802,192.3699951171875000,19.2812995910644530,36.5955009460449200,248.8029937744140600,127.9124984741211000,19.2779006958007800,30.3133792877197270,54,114,100,84,64,15363,2147527890,2148067017,2148305069,2147793755,2147320539,2147678363,2148137508,2148264758,607,7,13,14272
1344355687,5806,186.4700012207031200,19.2816009521484380,36.5848999023437500,252.6286010742187500,127.8528976440429700,19.2797298431396500,30.1439304351806640,52,117,100,85,63,15355,2147540406,2148119561,2148425572,2147792420,2147333805,2147721115,2148211556,2148265892,740,7,12,53132
1344355742,5803,182.4400024414062500,19.2465991973876950,36.5634002685546900,253.6378936767578000,128.9304962158203000,19.2468204498291000,30.1140499114990230,56,121,101,84,64,15352,2147552557,2148169737,2148524736,2147791954,2147338432,2147750582,2148268525,2148273014,601,7,12,18392
1344355797,5803,178.3800048828125000,19.2446002960205080,36.5620994567871100,253.8479003906250000,129.0550994873047000,19.2430095672607420,30.1065807342529300,56,120,100,85,64,15346,2147569993,2148241856,2148674925,2147791844,2147349760,2147801782,2148363053,2148277787,516,7,12,15997
1344355852,5804,174.2500000000000000,19.2731990814209000,36.5660018920898440,254.0016021728515600,128.1163024902343800,19.2716808319091800,30.0877704620361330,58,119,102,86,65,15348,2147584265,2148311881,2148822564,2147793417,2147347117,2147848402,2148454464,2148283940,613,7,12,19246
1344355907,5804,170.0500030517578000,19.3244991302490230,36.5784988403320300,254.4385070800781200,126.5466003417968800,19.3196201324462900,30.0484790802001950,60,119,101,85,63,15345,2147607222,2148399981,2148991350,2147793883,2147363081,2147902363,2148549266,2148290176,783,7,12,8529
1344355962,5804,165.7599945068359400,19.3306999206542970,36.5775985717773440,255.0877990722656200,126.2459030151367200,19.3288002014160160,30.0164794921875000,60,119,101,85,62,15343,2147628909,2148495945,2149188544,2147794706,2147375872,2147965769,2148663076,2148299547,690,7,12,64185
1344356040,5804,160.0000000000000000,19.3346004486084000,36.5765991210937500,255.6728973388672000,126.1178970336914000,19.3327102661132800,29.9895401000976560,62,123,101,86,63,15346,2147670500,2148640859,2149476992,2147797083,2147398820,2148058422,2148821732,2148306980,279,7,13,60283
1344356107,5802,155.5299987792968800,19.3353004455566400,36.5756988525390600,256.1361999511719000,126.0962982177734400,19.3333702087402340,29.9696693420410160,62,123,101,87,63,15349,2147704402,2148768438,2149732032,2147800356,2147418203,2148143268,2148972397,2148313618,203,7,12,13384
1344356162,5801,151.8600006103515600,19.3398990631103500,36.5746002197265600,256.3908081054687500,125.9702987670898400,19.3372192382812500,29.9570007324218750,63,125,100,85,64,15340,2147742189,2148886564,2149984722,2147800338,2147438692,2148222016,2149115885,2148323090,298,7,12,28135
1344356217,5803,148.2700042724609400,19.3476009368896500,36.5744018554687500,256.4128112792969000,125.7022018432617200,19.3454093933105470,29.9525794982910160,68,126,102,86,64,15336,2147788763,2149026953,2150246509,2147800466,2147448429,2148305188,2149266432,2148335158,385,7,12,55978
1344356284,5803,144.0399932861328000,19.3656997680664060,36.5740013122558600,256.0293884277344000,125.1454010009765600,19.3624191284179700,29.9617500305175780,79,124,99,85,63,15332,2147858752,2149240530,2150665490,2147805540,2147488448,2148427062,2149475227,2148345481,301,8,12,18690
1344356362,5806,139.8399963378906200,19.3873004913330080,36.5754013061523440,255.4485015869140600,124.4423980712890600,19.3838901519775400,29.9777603149414060,92,127,101,86,63,15319,2147955346,2149525165,2151197558,2147811081,2147527186,2148563017,2149708937,2148363776,300,7,13,30753
1344356465,5803,135.9499969482422000,19.4067001342773440,36.5758018493652340,255.3314971923828000,123.8075027465820300,19.4032897949218750,29.9744606018066400,100,129,101,86,64,15309,2148072530,2149876141,2151808886,2147816850,2147573174,2148717723,2149961033,2148384000,92,7,12,18816
1344356580,5803,132.0399932861328000,19.4400997161865230,36.5793991088867200,255.1970977783203000,122.7314987182617200,19.4361591339111330,29.9662895202636720,108,129,103,86,64,15303,2148227062,2150292681,2152532964,2147825947,2147630098,2148875474,2150232896,2148403675,3533,7,13,1409
1344356691,5804,127.5999984741211000,19.4559001922607420,36.5802993774414060,255.4624023437500000,122.1612014770507800,19.4535808563232420,29.9475593566894530,111,133,102,87,64,15295,2148498294,2151046180,2153831177,2147841362,2147736466,2149156269,2150718217,2148442541,3302,7,12,25872
1344356782,5803,123.2699966430664000,19.4766006469726560,36.5814018249511700,256.0694885253906000,121.5138015747070300,19.4733600616455080,29.9131298065185550,116,133,102,86,64,15289,2148827648,2151847323,2155118784,2147860388,2147845924,2149444324,2151188434,2148486491,3430,7,12,35469
1344356861,5804,119.5699996948242200,19.5191993713378900,36.5843009948730500,256.5367126464844000,120.3332977294921900,19.5094394683837900,29.8779907226562500,122,132,102,86,65,15276,2149182153,2152682048,2156373046,2147881417,2147961216,2149723136,2151616566,2148527908,61,7,12,5500
1344356954,5804,115.3499984741211000,19.5314006805419920,36.5727005004882800,258.4721984863281000,119.6846008300781200,19.5292606353759770,29.7872695922851560,134,133,104,87,66,15265,2149792182,2154071588,2158432274,2147916269,2148147675,2150195913,2152349504,2148593846,3465,7,13,55384
1344357033,5804,111.8399963378906200,19.5510005950927730,36.5694007873535160,257.2633972167969000,119.0795974731445300,19.5477504730224600,29.8307704925537100,145,137,102,87,65,15246,2150404964,2155383497,2160208466,2147947821,2148346505,2150620516,2152955117,2148652608,179,8,12,45938
1344357124,5800,107.8099975585937500,19.5937004089355470,36.5718002319335940,257.4443054199219000,117.5519027709961000,19.5944404602050780,29.8034400939941400,157,140,102,89,65,15221,2151408768,2157551067,2163039360,2148003958,2148650761,2151257060,2153873499,2148741513,225,7,13,55049
1344357215,5803,103.9800033569336000,19.6665992736816400,36.5717010498046900,260.0215148925781000,115.3115005493164000,19.6629295349121100,29.6657295227050780,140,138,103,89,67,15222,2152809462,2160421933,2166583899,2148075794,2149076672,2152173156,2155127780,2148872484,236,7,13,48127
1344357296,5805,100.7200012207031200,19.7264003753662100,36.5736999511718750,262.5358886718750000,113.4003982543945300,19.7213592529296880,29.5360908508300780,141,137,103,87,65,15198,2154332891,2163344950,2169992832,2148151606,2149536941,2153140269,2156400768,2149005878,199,7,13,27422
1344357351,5806,98.6100006103515600,19.7751007080078120,36.5793991088867200,264.6289062500000000,111.8796997070312500,19.7678604125976560,29.4304008483886720,111,132,104,88,64,15229,2155427099,2165277266,2172112137,2148208219,2149911314,2153872941,2157274285,2149098843,70,7,12,18117
1344357406,5805,96.5400009155273400,19.8043003082275400,36.5792999267578100,266.8328857421875000,110.8529968261718800,19.7992706298828120,29.3270797729492200,107,131,103,90,65,15240,2156567680,2167120118,2173872530,2148269741,2150292672,2154611401,2158078857,2149185965,3452,7,13,23076
1344357461,5804,94.4700012207031200,19.8306007385253900,36.5765991210937500,268.3421936035156000,109.9375991821289000,19.8272590637207030,29.2541999816894530,105,132,103,89,65,15226,2158023689,2169533430,2176320265,2148344923,2150786651,2155543890,2159145289,2149295945,3207,7,13,52269
1344357516,5799,92.5100021362304700,19.8862991333007800,36.5787010192871100,268.4142150878906000,108.1762008666992200,19.8811492919921880,29.2288093566894530,101,134,105,89,65,15223,2159705490,2172131346,2178905517,2148433572,2151361846,2156622756,2160355145,2149426843,3000,7,13,65350
1344357594,5803,89.1999969482421900,19.9974002838134770,36.5875015258789060,269.5378112792969000,104.2315979003906200,20.0018501281738280,29.1336097717285160,94,133,103,89,64,15220,2163311963,2177524708,2184290688,2148626651,2152689325,2158988763,2162875757,2149693284,2708,7,13,28880
1344357649,5803,86.2300033569336000,20.0832004547119140,36.5928993225097660,271.7781982421875000,102.0856018066406200,20.0675392150878900,29.0170993804931640,87,138,105,90,63,15212,2167200804,2183296036,2190085440,2148865810,2154205174,2161600384,2165578230,2149965787,2788,7,13,14955
1344357704,5804,83.1800003051757800,20.2849998474121100,36.6244010925293000,272.6788940429687500,95.7036666870117200,20.2629795074462900,28.9009208679199220,83,135,104,89,63,15217,2171501504,2189316580,2195774656,2149134546,2156059538,2164690176,2168707529,2150280566,2896,7,13,52916
1344357759,5805,80.1999969482421900,20.3290004730224600,36.6039009094238300,275.4045104980469000,94.2250289916992200,20.3082809448242200,28.7752799987792970,79,138,106,92,61,15203,2176841718,2196744347,2203387382,2149506633,2158388461,2168499556,2172532333,2150666724,3122,7,13,7799
1344357814,5804,77.4700012207031200,20.4290008544921880,36.6029014587402340,279.1480102539062500,90.2162780761718800,20.4311408996582030,28.5802192687988280,79,139,107,90,61,15194,2180984896,2201668132,2207584100,2149803154,2160372306,2171328612,2175030144,2150944457,3431,7,13,14971
1344357869,5804,75.1600036621093800,20.5841007232666000,36.6259994506835940,280.0228881835937500,85.8266296386718800,20.5657291412353500,28.4922103881835940,76,138,106,90,61,15203,2186805760,2209222217,2214847680,2150207094,2163231158,2175787428,2179366025,2151385408,3445,7,12,65356
1344357926,5804,73.3600006103515600,20.6814002990722660,36.6414985656738300,280.1286926269531000,81.8684310913086000,20.6871490478515620,28.4388008117675780,74,137,106,92,62,15190,2175426011,2188941357,2190105700,2149309558,2159044342,2167181174,2168432320,2150294308,3498,7,13,43382
1344357981,5803,72.0400009155273400,20.8381996154785160,36.6441001892089840,280.5408935546875000,77.4475021362304700,20.8228397369384770,28.3682308197021500,73,137,106,91,60,15202,2180558784,2195392905,2196372516,2149667053,2161351515,2170388498,2171388754,2150619245,3216,7,13,58547
1344358060,5805,70.5199966430664000,21.0538005828857420,36.6637001037597660,281.1803894042969000,70.7800216674804700,21.0276298522949220,28.2614593505859380,71,137,106,91,61,15194,2199338322,2221888749,2224238692,2151002624,2169853668,2183927140,2185272969,2152013056,2535,7,13,9437
1344358163,5804,68.3099975585937500,21.0720996856689450,36.6167984008789060,284.4559020996094000,69.4280395507812500,21.0691699981689450,28.1215305328369140,72,138,108,93,61,15179,2214219611,2241033344,2243231049,2152180196,2177720475,2195630820,2196577499,2153211419,2354,7,12,42270
1344358265,5805,65.9800033569336000,21.4538993835449220,36.6696014404296900,284.7196960449219000,61.0807800292968750,21.3258495330810550,28.0090293884277340,67,140,108,90,60,15191,2224496502,2252376950,2253220827,2153071652,2183853668,2203413202,2202904164,2153909284,2672,8,13,60064
1344358332,5805,64.4400024414062500,21.5107002258300780,36.6715011596679700,284.4077148437500000,55.1497306823730500,21.5083999633789060,27.9478797912597660,65,140,107,92,62,15195,2227826084,2253964571,2253163794,2153358582,2186838070,2205741769,2203249572,2154009097,3460,7,13,29244
1344358435,5804,62.4399986267089840,21.8132991790771500,36.6674995422363300,283.9484863281250000,45.2688407897949200,21.8128890991210940,27.8441104888916000,62,148,106,92,60,15197,2229200868,2252060288,2248703186,2153388562,2190669760,2208925138,2204251254,2154106569,3501,7,12,50667
1344358561,5802,59.9399986267089840,21.9747009277343750,36.6659011840820300,285.1250915527344000,40.1104011535644500,21.9720191955566400,27.7374000549316400,62,140,108,92,58,15186,2250650057,2275973732,2271661952,2155609362,2204768640,2226302025,2218860150,2155722038,2496,7,13,52466
1344358616,5798,57.9399986267089840,22.0641994476318360,36.6491012573242200,285.5130004882812500,37.1408996582031250,22.0636901855468750,27.6869602203369140,61,138,109,91,57,15189,2260971986,2285681462,2280092982,2156850358,2212932900,2234968000,2225152365,2156539044,2314,8,12,9481
1344358671,5805,55.8499984741210940,22.1375007629394530,36.6412010192871100,286.4338073730469000,34.8465385437011700,22.1345405578613280,27.6252708435058600,59,139,108,93,60,15182,2272089206,2295707492,2288678400,2158284553,2222891474,2245762678,2233453238,2157559469,2092,7,12,54742
1344358813,5802,51.7099990844726560,22.4724006652832030,36.6380996704101560,285.7123107910156000,24.2084693908691400,22.4634094238281250,27.5227108001709000,59,140,108,91,59,15188,2290544164,2314780187,2307592923,2161785746,2238422582,2262668196,2246157120,2159297929,3115,7,13,55337
1344358870,5802,50.1399993896484400,22.6634006500244140,36.6389007568359400,284.6105041503906000,17.7731895446777340,22.6626396179199220,27.4853706359863280,59,139,108,92,60,15188,2299950354,2324293760,2317078829,2163703012,2245530697,2269882102,2252008996,2160246134,3047,7,12,51636
1344358904,5805,48.8100013732910160,22.8456993103027340,36.6332015991210940,283.4690856933594000,12.4487495422363280,22.8276405334472660,27.4629802703857420,58,140,106,92,58,15187,2302761069,2325389750,2317479323,2164559204,2252291117,2276939428,2257533193,2161073088,2710,8,12,47279
1344358961,5803,46.6699981689453100,22.8997993469238280,36.6311988830566400,283.1091003417969000,10.5700101852417000,22.8859004974365230,27.4537601470947270,57,139,109,92,61,15196,2316179803,2339091830,2331262162,2167594176,2263139968,2287469961,2264964123,2162290724,3053,8,12,15703
1344359018,5805,44.6699981689453100,23.0209007263183600,36.6292991638183600,282.2272033691406000,7.1912789344787600,22.9907207489013670,27.4454994201660160,57,137,107,95,61,15195,2325875117,2348324269,2340788333,2170579584,2274024073,2297928329,2272691803,2163685430,3496,8,13,58043
1344359087,5804,42.7400016784668000,23.1676998138427730,36.6157989501953100,281.2366943359375000,1.8725399971008300,23.1558609008789060,27.4181709289550780,56,138,107,93,56,15198,2335437577,2357325522,2349582006,2173231917,2284573019,2308368722,2280501778,2165081526,3486,8,13,32593
1344359504,5801,40.7599983215332000,23.9983005523681640,36.4785003662109400,272.2728881835937500,-25.0053806304931640,23.9929409027099600,27.4327602386474600,55,137,108,91,56,15200,2281213120,2290212260,2279749110,2164805174,2252195931,2263881462,2238134125,2159473490,3114,6,12,538
1344359597,5804,38.7799987792968750,24.2534008026123050,36.4882011413574200,270.2547912597656000,-32.7846794128418000,24.2360591888427730,27.4167404174804700,56,138,106,91,64,15205,2384004525,2406411044,2399030208,2185251108,2336198802,2361382308,2320831259,2171126162,2391,8,13,27531
1344359882,5804,36.9199981689453100,24.7682991027832030,36.4672012329101560,264.9603881835937500,-48.8362007141113300,24.7389793395996100,27.4297790527343750,54,136,106,90,52,15219,2381503808,2399783085,2391055744,2185945536,2349690541,2370253339,2324171035,2172126400,1873,7,12,43981
1344360226,5803,34.7299995422363300,25.2019996643066400,36.4662017822265600,260.7562866210937500,-62.6786384582519500,25.1741409301757800,27.4297599792480470,53,130,103,89,57,15231,2357108342,2371959680,2365088704,2184484790,2344630025,2357329901,2308531904,2170187465,633,7,12,55871
1344360295,5804,32.6399993896484400,25.2793006896972660,36.4410018920898440,259.9706115722656000,-66.1517868041992200,25.2835407257080080,27.4193000793457030,54,128,102,92,58,15243,2393944393,2411185033,2405423808,2195764525,2386779858,2401076096,2341077732,2175383917,200,8,12,16009
1344360508,5801,30.8899993896484380,25.7014999389648440,36.4127998352050800,256.9848022460937500,-78.9321594238281200,25.6868896484375000,27.3855400085449220,53,130,104,92,58,15222,2379573824,2392748845,2387376923,2195678299,2391641252,2399919177,2336582637,2175207259,1733,8,13,36580